Location: DARK SKY Beskydy - Park tmavé oblohy, www.darkskybeskydy.cz
(49.4926°N, 18.5016°E)
Time: 13:58:47
(UTC+01:00)

Vanguard 1 - Pass Details

Date: 20 November 2025
Orbit: 650 x 3821 km, 34.2° (Epoch: 07 December)

Event Time Altitude Azimuth Distance (km) Brightness Sun altitude
Rises 19:45:34 0° 272° (W) 7,471 15.5 -36.5°
Reaches altitude 10° 19:50:44 10° 266° (W) 6,685 15.0 -37.3°
Maximum altitude 20:11:03 42° 206° (SSW) 4,667 13.3 -40.5°
Enters shadow 20:19:05 33° 169° (S) 4,824 13.2 -41.8°
